Home > Weather > Tallahassee > Past weeks

Flag for USA Past Weather in Tallahassee, Florida, USA — Yesterday and Last 2 Weeks

Now
62 °F

Passing clouds.


Feels Like: 62 °F
Forecast: 59 / 92 °F
Wind: No wind

Location: Tallahassee Regional Airport

Current Time: May 24, 2016 at 8:05:57 AM

Latest Report: May 24, 2016 at 6:53 AM


Visibility: 10 mi

Pressure: 30.05 "Hg

Humidity: 83%

Dew Point: 57 °F

Location of TallahasseeLocation

Past Weather in Tallahassee — Graph

°F

Tallahassee Temperature Yesterday

Maximum temperature yesterday: 88 °F (at 4:53 PM)
Minimum temperature yesterday: 57 °F (at 6:53 AM)
Average temperature yesterday: 74 °F

High & Low Weather Summary for the Past Weeks

 TemperatureHumidityPressure
High92 °F (May 12, 3:53 PM)100% (May 20, 8:57 AM)30.17 "Hg (May 20, 8:57 AM)
Low55 °F (May 9, 6:53 AM)20% (May 14, 4:53 PM)29.89 "Hg (May 22, 6:53 PM)
Average76 °F66%30.02 "Hg
* Reported May 9 5:53 AM — May 24 5:53 AM, Tallahassee, Weather by CustomWeather, © 2016

Note: Actual official high and low records may vary slightly from our data, if they occured in-between our weather recording intervals... More about our weather records

Advertising

Tallahassee Weather History for the Previous 24 Hours

Scroll right to see more
 ConditionsComfort  
Time TempWeatherWind HumidityBarometerVisibility
5:53 AM
Tue, May 24
60 °FPassing clouds.No wind86%30.03 "Hg10 mi
4:53 AM60 °FClear.No wind86%30.01 "Hg10 mi
3:53 AM62 °FClear.No wind83%30.01 "Hg10 mi
2:53 AM64 °FClear.No wind81%30.01 "Hg10 mi
1:53 AM64 °FClear.No wind81%30.01 "Hg10 mi
12:53 AM65 °FClear.No wind78%30.02 "Hg10 mi
11:53 PM
Mon, May 23
67 °FClear.No wind73%30.02 "Hg10 mi
10:53 PM69 °FPassing clouds.No wind66%30.02 "Hg10 mi
9:53 PM74 °FPassing clouds.5 mph50%29.98 "Hg10 mi
8:53 PM77 °FPassing clouds.No wind47%29.96 "Hg10 mi
7:53 PM83 °FPassing clouds.6 mph31%29.94 "Hg10 mi
6:53 PM86 °FSunny.8 mph26%29.93 "Hg10 mi
5:53 PM87 °FPassing clouds.8 mph25%29.93 "Hg10 mi
4:53 PM88 °FPassing clouds.7 mph23%29.93 "Hg10 mi
3:53 PM87 °FPassing clouds.3 mph24%29.95 "Hg10 mi
2:53 PM86 °FPassing clouds.3 mph27%29.96 "Hg10 mi
1:53 PM84 °FPassing clouds.7 mph29%29.97 "Hg10 mi
12:53 PM83 °FPassing clouds.6 mph28%29.98 "Hg10 mi
11:53 AM82 °FPassing clouds.No wind31%29.98 "Hg10 mi
10:53 AM80 °FSunny.6 mph35%29.99 "Hg10 mi
9:53 AM77 °FSunny.5 mph44%29.98 "Hg10 mi
8:53 AM71 °FSunny.6 mph55%29.99 "Hg10 mi
Weather by CustomWeather, © 2016

See weather overviewHow to use our weather pages